Retour au catalogue

STARLINK-35760

ActifCommunicationsVLEO
NORAD 66274·PAYLOAD·🇺🇸 United States

Lancé Oct 31, 2025 depuis Vandenberg Space Force Base

Loading…

Prochains Passages (prochaines 24 heures)

TLE

FraisSource: CelesTrak SupGP

Époque: Sep 15, 2026, 03:07 UTC

1 66274C 25247K   26258.13034722  .00026200  00000+0  77437-3 0  2588
2 66274  53.1606  28.4875 0001229  88.5625 158.4883 15.34366187    12

Suivez STARLINK-35760 en temps réel avec AllMySat

Download on the App Store